Le nostre stazioni meteo in Italia

Pubblicità
Il mio iltempo24.it
Luqa, Malta (16597): Temperatura & dewpoint: 17.08.2017 10:00:00 - 23.08.2017 10:00:00 (CEST)Luqa, Malta (16597): velocità del vento: 17.08.2017 10:00:00 - 23.08.2017 10:00:00 (CEST)Luqa, Malta (16597): direzione del vento: 17.08.2017 10:00:00 - 23.08.2017 10:00:00 (CEST)Luqa, Malta (16597): reduced air pressure: 17.08.2017 10:00:00 - 23.08.2017 10:00:00 (CEST)Luqa, Malta (16597): visibility: 17.08.2017 10:00:00 - 23.08.2017 10:00:00 (CEST)
Data & Tempo tt [°C] td [°C] ff [km/h] ff [kn] dd ppp [hPa] vv [km]
23.08.2017 10:00:00 - - - - - - -
23.08.2017 09:00:00 26,0 20,0 8 4 SSO - 10
23.08.2017 08:00:00 26,0 20,3 4 2 - 1016,3 10
23.08.2017 07:00:00 24,0 20,0 4 2 ONO - 10
23.08.2017 06:00:00 23,0 19,0 2 1 - - 10
23.08.2017 05:00:00 23,1 19,3 2 1 - 1015,2 10
23.08.2017 04:00:00 24,0 20,0 4 2 - - 10
23.08.2017 03:00:00 24,0 19,0 5 3 S - 10
23.08.2017 02:00:00 24,8 19,8 4 2 - 1015,4 10
23.08.2017 01:00:00 25,0 20,0 4 2 S - 10
23.08.2017 00:00:00 25,0 20,0 5 3 SSE - 10
22.08.2017 23:00:00 25,5 19,6 4 2 SSE 1015,6 10
22.08.2017 22:00:00 26,0 20,0 4 2 SSO - 10
22.08.2017 21:00:00 26,0 20,0 8 4 S - 10
22.08.2017 20:00:00 26,4 19,5 9 5 S 1014,5 10
22.08.2017 19:00:00 27,0 19,0 9 5 S - 10
22.08.2017 18:00:00 28,0 19,0 11 6 S - 10
22.08.2017 17:00:00 28,4 19,6 15 8 S 1014,4 10
22.08.2017 16:00:00 29,0 19,0 15 8 S - 10
22.08.2017 15:00:00 29,0 18,0 15 8 S - 10
22.08.2017 14:00:00 29,4 18,5 11 6 SSO 1015,3 10
22.08.2017 13:00:00 29,0 18,0 15 8 SSO - 10
22.08.2017 12:00:00 29,0 19,0 11 6 SSO - 10
22.08.2017 11:00:00 28,5 20,1 13 7 SSO 1015,6 10
22.08.2017 10:00:00 28,0 21,0 11 6 S - 10
22.08.2017 09:00:00 28,0 21,0 4 2 - - 10
22.08.2017 08:00:00 25,7 21,7 8 4 SSE 1014,8 10
22.08.2017 07:00:00 24,0 21,0 4 2 SSE - 10
22.08.2017 06:00:00 23,0 21,0 5 3 S - 10
22.08.2017 05:00:00 23,7 21,4 5 3 S 1014,1 10
22.08.2017 04:00:00 23,0 21,0 5 3 SSO - 10
22.08.2017 03:00:00 23,0 21,0 5 3 S - 10
22.08.2017 02:00:00 23,6 20,4 5 3 OSO 1013,9 10
22.08.2017 01:00:00 24,0 20,0 8 4 O - 10
22.08.2017 00:00:00 24,0 20,0 5 3 SSO - 10
21.08.2017 23:00:00 24,8 19,9 9 5 N 1014,2 10
21.08.2017 22:00:00 25,0 20,0 11 6 N - 10
21.08.2017 21:00:00 25,0 20,0 13 7 N - 10
21.08.2017 20:00:00 25,9 20,0 11 6 NNO 1013,0 10
21.08.2017 19:00:00 27,0 19,0 21 11 N - 10
21.08.2017 18:00:00 28,0 20,0 16 9 N - 10
21.08.2017 17:00:00 28,5 20,4 13 7 NNE 1012,2 10
21.08.2017 16:00:00 29,0 20,0 11 6 NE - 10
21.08.2017 15:00:00 29,0 21,0 13 7 ENE - 10
21.08.2017 14:00:00 29,4 20,4 8 4 ENE 1012,9 10
21.08.2017 13:00:00 30,0 21,0 15 8 NE - 10
21.08.2017 12:00:00 30,0 20,0 13 7 ENE - 10
21.08.2017 11:00:00 29,7 17,5 15 8 NNE 1013,3 10
21.08.2017 10:00:00 29,0 19,0 21 11 N - 10
21.08.2017 09:00:00 28,0 20,0 24 13 N - 10
21.08.2017 08:00:00 25,7 22,2 24 13 NNO 1012,8 10
21.08.2017 07:00:00 25,0 22,0 24 13 NNO - 10
21.08.2017 06:00:00 24,0 22,0 29 16 NNO - 10
21.08.2017 05:00:00 24,7 22,2 29 16 NNO 1011,8 10
21.08.2017 04:00:00 25,0 23,0 26 14 NO - 10
21.08.2017 03:00:00 25,0 23,0 26 14 NO - 10
21.08.2017 02:00:00 25,6 23,3 18 10 NO 1012,4 10
21.08.2017 01:00:00 26,0 23,0 18 10 NO - 10
21.08.2017 00:00:00 26,0 23,0 21 11 NO - 10
20.08.2017 23:00:00 25,8 22,6 13 7 NO 1013,4 10
20.08.2017 22:00:00 26,0 22,0 15 8 ONO - 10
20.08.2017 21:00:00 26,0 22,0 18 10 ONO - 10
20.08.2017 20:00:00 26,6 22,2 22 12 ONO 1013,3 10
20.08.2017 19:00:00 28,0 22,0 21 11 ONO - 10
20.08.2017 18:00:00 28,0 22,0 22 12 ONO - 10
20.08.2017 17:00:00 30,0 21,0 29 16 NO - 10
20.08.2017 16:00:00 31,0 21,0 24 13 NO - 10
20.08.2017 15:00:00 31,0 20,0 24 13 ONO - 10
20.08.2017 14:00:00 31,6 18,8 24 13 ONO 1015,0 10
20.08.2017 13:00:00 32,0 18,0 22 12 ONO - 10
20.08.2017 12:00:00 32,0 15,0 24 13 ONO - 10
20.08.2017 11:00:00 31,0 18,3 21 11 O 1015,5 10
20.08.2017 10:00:00 31,0 17,0 18 10 ONO - 10
20.08.2017 09:00:00 30,0 18,0 16 9 ONO - 10
20.08.2017 08:00:00 27,1 19,5 18 10 ONO 1014,9 10
20.08.2017 07:00:00 26,0 22,0 9 5 ONO - 10
20.08.2017 06:00:00 26,0 13,0 9 5 O - 10
20.08.2017 05:00:00 25,0 15,1 9 5 O 1014,6 10
20.08.2017 04:00:00 25,0 19,0 5 3 O - 10
20.08.2017 03:00:00 25,0 17,0 8 4 ONO - 10
20.08.2017 02:00:00 24,7 19,8 5 3 O 1015,2 10
20.08.2017 01:00:00 25,0 21,0 5 3 O - 10
20.08.2017 00:00:00 25,0 22,0 4 2 O - 10
19.08.2017 23:00:00 25,6 21,9 5 3 NO 1016,0 10
19.08.2017 22:00:00 26,0 22,0 4 2 - - 10
19.08.2017 21:00:00 27,0 19,0 9 5 NNO - 10
19.08.2017 20:00:00 28,8 16,0 8 4 NNO 1015,2 10
19.08.2017 19:00:00 32,0 13,0 8 4 O - 10
19.08.2017 18:00:00 32,0 17,0 8 4 ENE - 10
19.08.2017 17:00:00 33,0 15,8 13 7 OSO 1014,9 10
19.08.2017 16:00:00 33,0 13,0 16 9 OSO - 10
19.08.2017 15:00:00 33,0 12,0 13 7 OSO - 10
19.08.2017 14:00:00 32,9 14,3 13 7 OSO 1016,2 10
19.08.2017 13:00:00 33,0 14,0 13 7 O - 10
19.08.2017 12:00:00 33,0 14,0 13 7 OSO - 10
19.08.2017 11:00:00 33,2 13,4 11 6 OSO 1016,2 10
19.08.2017 10:00:00 33,0 14,0 5 3 - - 10
19.08.2017 09:00:00 31,0 16,0 4 2 - - 10
19.08.2017 08:00:00 26,2 19,4 5 3 NNO 1015,8 10
19.08.2017 07:00:00 24,0 21,0 5 3 NO - 10
19.08.2017 06:00:00 23,0 23,0 5 3 NO - 9
19.08.2017 05:00:00 24,0 22,9 8 4 NNO 1014,8 9
19.08.2017 04:00:00 24,0 23,0 8 4 NO - 8
19.08.2017 03:00:00 25,0 23,0 4 2 - - 8
19.08.2017 02:00:00 24,5 22,0 8 4 NO 1015,7 10
19.08.2017 01:00:00 25,0 22,0 5 3 NNO - 10
19.08.2017 00:00:00 25,0 21,0 8 4 NNO - 10
18.08.2017 23:00:00 25,8 21,0 2 1 - 1016,4 10
18.08.2017 22:00:00 27,0 21,0 5 3 ESE - 10
18.08.2017 21:00:00 27,0 22,0 5 3 ESE - 10
18.08.2017 20:00:00 27,9 19,8 8 4 ESE 1015,5 10
18.08.2017 19:00:00 29,0 20,0 9 5 SSE - 10
18.08.2017 18:00:00 30,0 20,0 11 6 SE - 10
18.08.2017 17:00:00 30,9 19,4 11 6 ESE 1015,2 10
18.08.2017 16:00:00 31,0 19,0 13 7 E - 10
18.08.2017 15:00:00 31,0 18,0 13 7 ESE - 10
18.08.2017 14:00:00 31,6 18,5 15 8 ESE 1016,0 10
18.08.2017 13:00:00 31,0 19,0 15 8 E - 10
18.08.2017 12:00:00 31,0 20,0 16 9 E - 10
18.08.2017 11:00:00 29,5 21,2 15 8 ENE 1016,4 10
18.08.2017 10:00:00 30,0 21,0 13 7 ENE - 10
18.08.2017 09:00:00 29,0 21,0 15 8 ENE - 10
18.08.2017 08:00:00 27,1 20,9 15 8 ENE 1015,7 10
18.08.2017 07:00:00 26,0 20,0 9 5 E - 10
18.08.2017 06:00:00 24,0 21,0 5 3 NE - 10
18.08.2017 05:00:00 23,8 20,8 4 2 - 1014,6 10
18.08.2017 04:00:00 24,0 21,0 2 1 NNE - 10
18.08.2017 03:00:00 25,0 21,0 8 4 O - 10
18.08.2017 02:00:00 25,1 22,2 5 3 O 1015,2 10
18.08.2017 01:00:00 25,0 22,0 4 2 OSO - 10
18.08.2017 00:00:00 26,0 21,0 2 1 - - 10
17.08.2017 23:00:00 26,6 19,7 8 4 O 1015,1 10
17.08.2017 22:00:00 27,0 16,0 8 4 ONO - 10
17.08.2017 21:00:00 27,0 17,0 11 6 NO - 10
17.08.2017 20:00:00 28,9 12,4 13 7 NO 1014,8 10
17.08.2017 19:00:00 31,0 9,0 18 10 ONO - 10
17.08.2017 18:00:00 32,0 10,0 18 10 ONO - 10
17.08.2017 17:00:00 33,2 10,0 21 11 O 1014,6 10
17.08.2017 16:00:00 34,0 11,0 15 8 NO - 10
17.08.2017 15:00:00 34,0 12,0 15 8 ONO - 10
17.08.2017 14:00:00 34,0 13,9 11 6 O 1015,6 10
17.08.2017 13:00:00 33,0 16,0 8 4 NE - 10
17.08.2017 12:00:00 32,0 17,0 11 6 SSO - 10
17.08.2017 11:00:00 32,3 13,3 5 3 - 1015,8 10
17.08.2017 10:00:00 31,0 15,0 8 4 E - 10

tt = Temperatura
td = dewpoint
ff = velocità del vento
dd = direzione del vento
ppp = reduced air pressure
vv = visibility

Stazioni seguenti

WeatherPro
AMSI
MeteoEarth